Regional Weather Roundup
Issued by NWS

Home | Current Version | Previous Version | Text Only | Print | Product List | Glossary Off
Versions: 1 2 3 4 5 6 7 8 9 10 11 12 13 14 15 16 17 18 19 20 21 22 23 24 25 26 27 28 29 30 31 32 33 34 35 36 37 38 39 40 41 42 43 44 45 46 47 48 49 50

401
ASUS43 KOAX 300610
RWRNE

WEATHER ROUNDUP FOR NEBRASKA
NATIONAL WEATHER SERVICE OMAHA NE
100 AM CDT SUN APR 30 2017

NOTES: SATELLITE DATA IS BEING USED TO AUGMENT CLOUD COVER ABOVE
       12000 FEET.
       "FAIR" INDICATES FEW OR NO CLOUDS BELOW 12,000 FEET WITH NO
       SIGNIFICANT WEATHER AND/OR OBSTRUCTIONS TO VISIBILITY.

  * THESE STATIONS DO NOT REPORT WEATHER SUCH AS RAIN...SNOW OR FOG.

NEZ001>004-019>022-054>056-300700-
NEBRASKA PANHANDLE

CITY           SKY/WX    TMP DP  RH WIND       PRES   REMARKS
SCOTTSBLUFF    CLEAR     33  26  75 N5        30.15F WCI  29
6HR MIN TEMP:  32; 6HR MAX TEMP:  45;

ALLIANCE       CLEAR     32  26  78 N9        30.13F WCI  24
6HR MIN TEMP:  32; 6HR MAX TEMP:  48;

CHADRON        CLEAR     33  27  78 S5        30.17F WCI  29
6HR MIN TEMP:  32; 6HR MAX TEMP:  50;

KIMBALL        CLEAR     31  26  79 N9        30.12F WCI  23
SIDNEY         CLOUDY    36  25  64 N12       30.11F WCI  28
6HR MIN TEMP:  35; 6HR MAX TEMP:  44;

$$

NEZ057>060-069>072-079>082-300700-
SOUTHWEST NEBRASKA

CITY           SKY/WX    TMP DP  RH WIND       PRES   REMARKS
NORTH PLATTE   CLOUDY    42  24  49 NE20G29   30.05F
6HR MIN TEMP:  42; 6HR MAX TEMP:  46;

LEXINGTON      CLOUDY    40  29  65 NE24G31   30.00F WCI  30
MCCOOK         FLURRIES  35  33  92 NE23G30   30.01F WCI  23
6HR MIN TEMP:  35; 6HR MAX TEMP:  41; 6HR PCP:  0.07;

OGALLALA       CLOUDY    43  26  51 N13       30.08F
$$

NEZ005>010-023>029-035>040-094-300700-
NORTH CENTRAL NEBRASKA

CITY           SKY/WX    TMP DP  RH WIND       PRES   REMARKS
VALENTINE      CLOUDY    45  22  40 NE7       30.13F
6HR MIN TEMP:  45; 6HR MAX TEMP:  52;

AINSWORTH      CLOUDY    42  28  56 NE7       30.12F
O`NEILL        CLOUDY    45  24  44 N8        30.10F
THEDFORD       CLOUDY    41  29  62 E13       30.11F
$$

NEZ041-046>049-061>064-073>077-083>087-300700-
SOUTH CENTRAL NEBRASKA

CITY           SKY/WX    TMP DP  RH WIND       PRES   REMARKS
GRAND ISLAND   LGT RAIN  38  37  97 N21       30.00F WCI  28
6HR MIN TEMP:  38; 6HR MAX TEMP:  42; 6HR PCP:  0.02;

AURORA         LGT RAIN  37  36  94 N20G26    29.99F WCI  27
HASTINGS       LGT RAIN  36  34  92 NE30G38   29.96F WCI  23
6HR MIN TEMP:  36; 6HR MAX TEMP:  42; 6HR PCP:  0.20;

HEBRON         LGT RAIN  38  38  97 N14G23    29.91F WCI  30
HOLDREGE       LGT SNOW  34  32  93 N22G30    29.96F WCI  22
KEARNEY *      CLOUDY    36  30  80 NE31G37   29.96F WCI  22
YORK           MIX PCPN  37  37 100 N22       29.97F WCI  27
$$

NEZ011>018-030>034-042>045-300700-
NORTHEAST NEBRASKA

CITY           SKY/WX    TMP DP  RH WIND       PRES   REMARKS
NORFOLK        CLOUDY    44  30  57 NE15G22   30.04F
6HR MIN TEMP:  44; 6HR MAX TEMP:  47; 6HR PCP: TRACE;

ALBION         CLOUDY    43  32  65 N15G22    30.05F
BLAIR          RAIN      39  38  95 N16G26    29.96R WCI  31
FREMONT        LGT RAIN  40  39  99 N13G20    29.99S WCI  32
TEKAMAH        LGT RAIN  41  36  82 NE23G30   30.01F
6HR MIN TEMP:  41; 6HR MAX TEMP:  44; 6HR PCP:  0.09;

WAYNE          CLOUDY    45  32  60 NE20G28   30.05R
$$

NEZ050>053-065>068-078-088>093-300700-
SOUTHEAST NEBRASKA

CITY           SKY/WX    TMP DP  RH WIND       PRES   REMARKS
LINCOLN        LGT RAIN  40  38  93 NE20G30   29.95F FOG     WCI  30
6HR MIN TEMP:  40; 6HR MAX TEMP:  43; 6HR PCP:  0.15;

OMAHA EPPLEY   DRIZZLE   41  36  82 N17       29.96S
6HR MIN TEMP:  41; 6HR MAX TEMP:  45; 6HR PCP:  0.03;

BEATRICE       DRIZZLE   40  39  97 NE15G24   29.88F WCI  32
FALLS CITY     LGT RAIN  41  40  96 NE17G25   29.83F FOG
6HR MIN TEMP:  41; 6HR MAX TEMP:  43; 6HR PCP:  0.08;

NEBRASKA CITY  LGT RAIN  40  40 100 NE17G24   29.89F WCI  31
$$

NEZ044-045-051>053-067-300700-
OMAHA AREA

CITY           SKY/WX    TMP DP  RH WIND       PRES   REMARKS
OMAHA EPPLEY   DRIZZLE   41  36  82 N17       29.96S
6HR MIN TEMP:  41; 6HR MAX TEMP:  45; 6HR PCP:  0.03;

BLAIR          RAIN      39  38  95 N16G26    29.96R WCI  31
FREMONT        LGT RAIN  40  39  99 N13G20    29.99S WCI  32
MILLARD        DRIZZLE   42  39  90 N8G17     29.96S
OFFUTT AFB     LGT RAIN  40  38  91 N10G18    29.94S WCI  34
WAHOO          LGT RAIN  40  38  93 NE20G28   29.97S WCI  30
$$




USA.gov is the U.S. government's official web portal to all federal, state and local government web resources and services.